Tracking 19245 objects as of 14-Aug-2018
HD Live streaming from Space Station
objects crossing your sky now

NOAA 16 DEB

Track NOAA 16 DEB now!
10-day predictions


NORAD ID: 41414
Int'l Code: 2000-055KT
Perigee: 764.4 km
Apogee: 869.7 km
Inclination: 99.0 °
Period: 101.1 minutes
Semi major axis: 7188 km
RCS: Unknown
Launch date: September 21, 2000
Source: United States (US)
Launch site: AIR FORCE WESTERN TEST RANGE (AFWTR)

Note: This is SATELLITE DEBRIS
aabbcc
Your satellite tracking list
Your tracking list is empty




NASA's NSSDC Master Catalog

Two Line Element Set (TLE):
1 41414U 00055KT  18225.08007440 +.00000873 +00000-0 +38513-3 0  9996
2 41414 098.9672 324.9581 0073261 175.5664 184.6179 14.24576193128898
Source of the keplerian elements: AFSPC